Regional Weather Roundup
Issued by NWS

Home | Current Version | Previous Version | Text Only | Print | Product List | Glossary Off
Versions: 1 2 3 4 5 6 7 8 9 10 11 12 13 14 15 16 17 18 19 20 21 22 23 24 25 26 27 28 29 30 31 32 33 34 35 36 37 38 39 40 41 42 43 44 45 46 47 48 49 50

000
ASUS43 KDMX 222207
RWRIA

WEATHER ROUNDUP FOR IOWA
NATIONAL WEATHER SERVICE DES MOINES IA
500 PM CDT TUE JUL 22 2014

NOTE: "FAIR" INDICATES FEW OR NO CLOUDS BELOW 12,000 FEET WITH NO
SIGNIFICANT WEATHER AND/OR OBSTRUCTIONS TO VISIBILITY.

* - THESE STATIONS ARE NOT NWS STATIONS...THUS NOT UNDER NWS
QUALITY CONTROL.  THEY ALSO DO NOT REPORT WEATHER SUCH
AS PRECIPITATION OR FOG.

IAZ001>003-012>014-020>022-031>034-043>046-222300-
   NORTHWEST IOWA

CITY           SKY/WX    TMP DP  RH WIND       PRES   REMARKS
CARROLL *      SUNNY     81  70  69 N8G14     30.09S HX  84
CHEROKEE *     MOSUNNY   81  66  61 N13       30.10F HX  83
DENISON *      SUNNY     82  70  65 NE10      30.06F HX  86
LE MARS *      SUNNY     82  66  57 N12G22    30.13R HX  85
ORANGE CITY *  SUNNY     82  63  51 N12G17    30.13F HX  83
SHELDON *      SUNNY     82  64  54 N10       30.14S HX  84
SIOUX CITY     PTSUNNY   83  68  60 N15       30.11R HX  86
SPENCER        SUNNY     83  62  49 N14       30.13S HX  84
STORM LAKE *   SUNNY     79  70  73 N10       30.11F HX  81
$$

IAZ055>058-069>071-079>083-090>094-222300-
   SOUTHWEST IOWA

CITY           SKY/WX    TMP DP  RH WIND       PRES   REMARKS
ATLANTIC *     SUNNY     84  73  70 N13       30.07R HX  91
AUDUBON *      SUNNY     86  75  70 N10G18    30.10S HX  95
CLARINDA *     MOSUNNY   91  79  66 N10G17    30.04R HX 107
COUNCIL BLFS * SUNNY     86  75  70 N15G23    30.07S HX  95
CRESTON *      SUNNY     88  77  70 N12G17    30.05R HX 100
HARLAN  *      SUNNY     82  72  69 N9G17     30.12S HX  87
LAMONI         MOSUNNY   91  79  67 NW8       30.01F HX 107
RED OAK *      SUNNY     90  77  66 N15       30.06R HX 102
SHENANDOAH *   SUNNY     90  79  70 N13G20    30.05R HX 105
$$

IAZ047>049-059>061-072>074-084-222300-
   CENTRAL IOWA

CITY           SKY/WX    TMP DP  RH WIND       PRES   REMARKS
AMES           MOSUNNY   86  71  60 NW14G21   30.03R HX  91
ANKENY *       SUNNY     88  72  58 N8G15     30.00F HX  94
CHARITON *     MOSUNNY   90  81  74 N13       30.01R HX 108
DES MOINES     MOSUNNY   91  74  57 N12       30.01S HX 100
GRINNELL*      MOSUNNY   88  77  70 NW10      30.01S HX 100
KNOXVILLE *    SUNNY     90  77  66 N13       29.99S HX 102
MARSHALLTOWN   MOSUNNY   88  73  61 NW14      30.00F HX  95
PELLA *        MOSUNNY   91  77  62 NW10      30.01R HX 105
PERRY *          N/A     84  72  65 N12G17    30.07R HX  89
$$

IAZ004>006-015-016-023>025-035-036-222300-
   NORTH CENTRAL IOWA

CITY           SKY/WX    TMP DP  RH WIND       PRES   REMARKS
ALGONA *       SUNNY     82  66  57 NW13      30.11R HX  85
CLARION *      SUNNY     84  68  58 N14G21    30.07S HX  87
ESTHERVILLE    SUNNY     81  63  54 NW10G23   30.12R HX  82
FORT DODGE *   MOSUNNY   82  66  57 N8G16     30.09R HX  85
MASON CITY     MOSUNNY   84  68  58 NW13      30.06S HX  87
FOREST CITY *  SUNNY     82  64  54 NE15G22   30.07S HX  84
IOWA FALLS *     N/A     84  68  58 NW12G20   30.05R HX  87
$$

IAZ007>011-017>019-026>030-037>042-050>054-066-222300-
   NORTHEAST IOWA

CITY           SKY/WX    TMP DP  RH WIND       PRES   REMARKS
CEDAR RAPIDS   MOSUNNY   87  78  74 W12       29.98R HX 100
CHARLES CITY * SUNNY     84  70  61 NW14      30.04R HX  88
DECORAH *      SUNNY     84  70  61 NW14G21   30.00R HX  88
DUBUQUE        MOSUNNY   88  78  72 W10       29.96S HX 101
MONTICELLO *   MOSUNNY   88  81  79 W9G15     29.95S HX 105
OELWEIN *      SUNNY     88  70  55 NW15      30.01R HX  92
WATERLOO       MOSUNNY   88  66  48 NW15      29.99R HX  90
$$

IAZ064-065-067-068-078-222300-
   EAST CENTRAL IOWA

CITY           SKY/WX    TMP DP  RH WIND       PRES   REMARKS
DAVENPORT      PTSUNNY   86  78  77 W9        29.97R HX  98
IOWA CITY      MOSUNNY   89  79  72 W10       29.98S HX 104
MT. PLEASANT * PTSUNNY   86  75  70 W3        29.98F HX  95
MUSCATINE *    SUNNY     86  79  79 SW8       29.96F HX  99
QUAD CITIES    PTSUNNY   84  77  79 W9        29.96R HX  94
$$

IAZ062-063-075>077-085>089-095>099-222300-
   SOUTHEAST IOWA

CITY           SKY/WX    TMP DP  RH WIND       PRES   REMARKS
BURLINGTON     PTSUNNY   85  78  80 S9        29.97F HX  96
FAIRFIELD *    MOSUNNY   86  79  79 N7G13     29.99S HX  99
FORT MADISON * MOSUNNY   88  79  74 CALM      29.99F HX 102
KEOKUK *       PTSUNNY   86  79  79 VRB6      29.98S HX  99
OSKALOOSA *      N/A     86  79  79 NW9       29.99F HX  99
CENTERVILLE *  MOSUNNY   91  81  70 W8        30.01S HX 110
OTTUMWA        MOSUNNY   86  79  79 NW14      29.97S HX  99
WASHINGTON *   SUNNY     84  79  84 W9        29.98S HX  96
$$

ABBREVIATIONS USED IN REMARKS
   TC - TEMPERATURES IN CELSIUS
  WCI - WIND CHILL INDEX
   HX - HEAT INDEX
  VSB - VISIBILITY
$$




USA.gov is the U.S. government's official web portal to all federal, state and local government web resources and services.